• In Germany
  • List of Countries
  • For 7 days
  • Water Temperature
  • Satellite Maps
  • Weather Map
  • Weather Widgets
  • user-avatar
    Login

    Hourly Weather Saurimo

    Today, 27 May, Saturday

    Time Temperature Precipitation Wind Pressure Humidity
    00:00 +21°C° 0 mm 1 mps 671 mmHg 65%
    01:00 +21°C° 0 mm 1 mps 671 mmHg 65%
    02:00 +20°C° 0 mm 1 mps 671 mmHg 65%
    03:00 +20°C° 0 mm 1 mps 671 mmHg 65%
    04:00 +20°C° 0 mm 1 mps 670 mmHg 65%
    05:00 +20°C° 0 mm 1 mps 671 mmHg 63%
    06:00 +21°C° 0 mm 1 mps 672 mmHg 61%
    07:00 +22°C° 0 mm 1 mps 672 mmHg 59%
    08:00 +24°C° 0 mm 1 mps 673 mmHg 50%
    09:00 +27°C° 0 mm 1 mps 674 mmHg 41%
    10:00 +30°C° 0 mm 1 mps 674 mmHg 32%
    11:00 +31°C° 0 mm 1 mps 674 mmHg 30%
    12:00 +32°C° 0 mm 1 mps 674 mmHg 27%
    13:00 +34°C° 0 mm 2 mps 673 mmHg 25%
    14:00 +33°C° 0 mm 1 mps 673 mmHg 27%
    15:00 +32°C° 0 mm 1 mps 672 mmHg 29%
    16:00 +32°C° 0 mm 1 mps 672 mmHg 32%
    17:00 +28°C° 0 mm 1 mps 671 mmHg 38%
    18:00 +25°C° 0 mm 1 mps 671 mmHg 44%
    19:00 +22°C° 0 mm 1 mps 670 mmHg 50%
    20:00 +22°C° 0 mm 1 mps 670 mmHg 50%
    21:00 +21°C° 0 mm 1 mps 670 mmHg 50%
    22:00 +21°C° 0 mm 1 mps 671 mmHg 49%
    23:00 +21°C° 0 mm 1 mps 670 mmHg 51%

    Tomorrow, 28 May, Sunday

    Time Temperature Precipitation Wind Pressure Humidity
    00:00 +20°C° 0 mm 1 mps 670 mmHg 53%
    01:00 +19°C° 0 mm 1 mps 670 mmHg 54%
    02:00 +19°C° 0 mm 1 mps 670 mmHg 54%
    03:00 +19°C° 0 mm 1 mps 670 mmHg 54%
    04:00 +19°C° 0 mm 1 mps 670 mmHg 54%
    05:00 +19°C° 0 mm 1 mps 671 mmHg 54%
    06:00 +20°C° 0 mm 1 mps 671 mmHg 55%
    07:00 +20°C° 0 mm 1 mps 672 mmHg 55%
    08:00 +24°C° 0 mm 2 mps 673 mmHg 47%
    09:00 +27°C° 0 mm 2 mps 674 mmHg 39%
    10:00 +30°C° 0 mm 2 mps 675 mmHg 31%
    11:00 +31°C° 0 mm 2 mps 674 mmHg 29%
    12:00 +32°C° 0 mm 2 mps 674 mmHg 26%
    13:00 +34°C° 0 mm 2 mps 673 mmHg 24%
    14:00 +34°C° 0 mm 2 mps 673 mmHg 26%
    15:00 +32°C° 0 mm 2 mps 672 mmHg 29%
    16:00 +31°C° 0 mm 1 mps 671 mmHg 31%
    17:00 +28°C° 0 mm 1 mps 671 mmHg 36%
    18:00 +25°C° 0 mm 1 mps 671 mmHg 42%
    19:00 +22°C° 0 mm 1 mps 671 mmHg 47%
    20:00 +22°C° 0 mm 1 mps 671 mmHg 48%
    21:00 +22°C° 0 mm 1 mps 671 mmHg 49%
    22:00 +21°C° 0 mm 1 mps 672 mmHg 50%
    23:00 +21°C° 0 mm 1 mps 671 mmHg 52%

    Day after tomorrow, 29 May, Monday

    Time Temperature Precipitation Wind Pressure Humidity
    00:00 +20°C° 0 mm 1 mps 671 mmHg 53%
    01:00 +20°C° 0 mm 1 mps 671 mmHg 54%
    02:00 +20°C° 0 mm 1 mps 671 mmHg 54%
    03:00 +19°C° 0 mm 2 mps 671 mmHg 54%
    04:00 +19°C° 0 mm 2 mps 671 mmHg 54%
    05:00 +19°C° 0 mm 2 mps 671 mmHg 54%
    06:00 +19°C° 0 mm 2 mps 672 mmHg 55%
    07:00 +20°C° 0 mm 2 mps 672 mmHg 56%
    08:00 +24°C° 0 mm 2 mps 673 mmHg 49%
    09:00 +27°C° 0 mm 3 mps 674 mmHg 42%
    10:00 +30°C° 0 mm 3 mps 675 mmHg 35%
    11:00 +31°C° 0 mm 3 mps 674 mmHg 32%
    12:00 +33°C° 0 mm 3 mps 674 mmHg 29%
    13:00 +34°C° 0 mm 3 mps 673 mmHg 26%
    14:00 +32°C° 0 mm 2 mps 673 mmHg 28%
    15:00 +32°C° 0 mm 2 mps 672 mmHg 30%
    16:00 +31°C° 0 mm 2 mps 672 mmHg 32%
    17:00 +29°C° 0 mm 2 mps 672 mmHg 37%
    18:00 +26°C° 0 mm 2 mps 672 mmHg 42%
    19:00 +24°C° 0 mm 2 mps 672 mmHg 47%
    20:00 +24°C° 0 mm 2 mps 672 mmHg 47%
    21:00 +23°C° 0 mm 2 mps 673 mmHg 47%
    22:00 +23°C° 0 mm 2 mps 673 mmHg 47%
    23:00 +23°C° 0 mm 2 mps 673 mmHg 48%

    30 May, Tuesday

    Time Temperature Precipitation Wind Pressure Humidity
    00:00 +21°C° 0 mm 2 mps 672 mmHg 48%
    01:00 +21°C° 0 mm 2 mps 672 mmHg 49%
    02:00 +20°C° 0 mm 2 mps 672 mmHg 51%
    03:00 +19°C° 0 mm 2 mps 672 mmHg 53%
    04:00 +19°C° 0 mm 2 mps 671 mmHg 55%
    05:00 +19°C° 0 mm 2 mps 672 mmHg 55%
    06:00 +19°C° 0 mm 2 mps 673 mmHg 55%
    07:00 +20°C° 0 mm 3 mps 673 mmHg 55%
    08:00 +22°C° 0 mm 3 mps 674 mmHg 50%
    09:00 +26°C° 0 mm 3 mps 674 mmHg 44%
    10:00 +28°C° 0 mm 4 mps 675 mmHg 39%
    11:00 +29°C° 0 mm 3 mps 674 mmHg 36%
    12:00 +31°C° 0 mm 3 mps 674 mmHg 33%
    13:00 +33°C° 0 mm 3 mps 673 mmHg 30%
    14:00 +31°C° 0 mm 3 mps 673 mmHg 31%
    15:00 +31°C° 0 mm 2 mps 672 mmHg 33%
    16:00 +31°C° 0 mm 2 mps 672 mmHg 34%
    17:00 +28°C° 0 mm 2 mps 672 mmHg 39%
    18:00 +26°C° 0 mm 2 mps 672 mmHg 45%
    19:00 +23°C° 0 mm 2 mps 672 mmHg 50%
    20:00 +23°C° 0 mm 2 mps 672 mmHg 51%
    21:00 +21°C° 0 mm 2 mps 673 mmHg 52%
    22:00 +21°C° 0 mm 2 mps 673 mmHg 53%
    23:00 +20°C° 0 mm 2 mps 673 mmHg 54%

    31 May, Wednesday

    Time Temperature Precipitation Wind Pressure Humidity
    00:00 +20°C° 0 mm 2 mps 672 mmHg 54%
    01:00 +19°C° 0 mm 2 mps 672 mmHg 54%
    02:00 +19°C° 0 mm 2 mps 672 mmHg 54%
    03:00 +19°C° 0 mm 2 mps 672 mmHg 55%
    04:00 +18°C° 0 mm 3 mps 672 mmHg 55%
    05:00 +18°C° 0 mm 3 mps 673 mmHg 55%
    06:00 +19°C° 0 mm 3 mps 673 mmHg 55%
    07:00 +19°C° 0 mm 3 mps 674 mmHg 56%
    08:00 +21°C° 0 mm 4 mps 675 mmHg 49%
    09:00 +25°C° 0 mm 4 mps 675 mmHg 42%
    10:00 +28°C° 0 mm 4 mps 676 mmHg 35%
    11:00 +29°C° 0 mm 4 mps 675 mmHg 33%
    12:00 +30°C° 0 mm 4 mps 674 mmHg 31%
    13:00 +30°C° 0 mm 3 mps 674 mmHg 29%
    14:00 +30°C° 0 mm 3 mps 673 mmHg 30%
    15:00 +30°C° 0 mm 2 mps 673 mmHg 31%
    16:00 +29°C° 0 mm 2 mps 673 mmHg 33%
    17:00 +27°C° 0 mm 2 mps 673 mmHg 37%
    18:00 +24°C° 0 mm 2 mps 673 mmHg 42%
    19:00 +21°C° 0 mm 2 mps 673 mmHg 47%
    20:00 +20°C° 0 mm 2 mps 673 mmHg 47%
    21:00 +20°C° 0 mm 2 mps 673 mmHg 48%
    22:00 +19°C° 0 mm 2 mps 673 mmHg 49%
    23:00 +18°C° 0 mm 2 mps 673 mmHg 50%

    1 June, Thursday

    Time Temperature Precipitation Wind Pressure Humidity
    00:00 +18°C° 0 mm 2 mps 672 mmHg 51%
    01:00 +17°C° 0 mm 2 mps 672 mmHg 53%
    02:00 +17°C° 0 mm 2 mps 672 mmHg 54%
    03:00 +17°C° 0 mm 2 mps 672 mmHg 54%
    04:00 +16°C° 0 mm 2 mps 672 mmHg 55%
    05:00 +17°C° 0 mm 2 mps 673 mmHg 55%
    06:00 +17°C° 0 mm 3 mps 673 mmHg 55%
    07:00 +17°C° 0 mm 3 mps 674 mmHg 54%
    08:00 +20°C° 0 mm 3 mps 674 mmHg 48%
    09:00 +23°C° 0 mm 4 mps 675 mmHg 42%
    10:00 +27°C° 0 mm 4 mps 675 mmHg 36%
    11:00 +28°C° 0 mm 4 mps 674 mmHg 34%
    12:00 +29°C° 0 mm 3 mps 674 mmHg 32%
    13:00 +30°C° 0 mm 3 mps 673 mmHg 30%
    14:00 +29°C° 0 mm 2 mps 673 mmHg 31%
    15:00 +29°C° 0 mm 2 mps 672 mmHg 32%
    16:00 +29°C° 0 mm 2 mps 672 mmHg 34%
    17:00 +26°C° 0 mm 2 mps 672 mmHg 40%
    18:00 +24°C° 0 mm 2 mps 672 mmHg 46%
    19:00 +20°C° 0 mm 2 mps 672 mmHg 52%
    20:00 +20°C° 0 mm 2 mps 672 mmHg 53%
    21:00 +19°C° 0 mm 2 mps 672 mmHg 54%
    22:00 +19°C° 0 mm 2 mps 672 mmHg 55%
    23:00 +18°C° 0 mm 2 mps 672 mmHg 56%
    Show more